Flag for Finland Weather past 2 weeks in Lahti, Finland

Now
27 °F

Snow flurries. Overcast.


Feels Like: 20 °F
Forecast: 18 / 24 °F
Wind: 6 mph from Northwest

Location: Utti

Current Time: Dec 22, 2014 at 5:51:49 AM

Latest Report: Dec 22, 2014 at 5:20 AM


Visibility: 5 mi

Pressure: 29.33 "Hg

Humidity: 86%

Dew point: 23 °F

Location of LahtiLocation

Historic Weather in Lahti — Graph

°F

Lahti temperature yesterday

Maximum temperature yesterday: 32 °F (at 1:20 AM)
Minimum temperature yesterday: 27 °F (at 11:20 AM)
Average temperature yesterday: 29 °F

Past Weeks' High & Low Weather Summary

 TemperatureHumidityPressure
High37 °F (Dec 7, 2:20 PM)100% (Dec 7, 4:20 AM)30.04 "Hg (Dec 7, 4:20 AM)
Low27 °F (Dec 21, 11:20 AM)74% (Dec 21, 10:50 AM)28.74 "Hg (Dec 13, 12:20 PM)
Average33 °F95%29.49 "Hg
* Reported Dec 7 4:20 AM — Dec 22 4:50 AM, Lahti, Weather by CustomWeather, © 2014

Note: Actual official high and low records may vary slightly from our data, if they occured in-between our weather recording intervals... More about our weather records

Advertising

Lahti weather history for previous 24 hours

 ConditionsComfort  
Time TempWeatherWind HumidityBarometerVisibility
4:50 AM
Dec 22
27 °FSnow flurries. Overcast.6 mph86%29.33 "HgN/A
4:20 AM27 °FLight snow. Overcast.6 mph86%29.33 "HgN/A
3:50 AM27 °FLight snow. Overcast.7 mph93%29.36 "HgN/A
3:20 AM27 °FLight snow. Overcast.8 mph93%29.36 "HgN/A
2:50 AM27 °FLight snow. Overcast.6 mph86%29.36 "HgN/A
2:20 AM28 °FOvercast.7 mph80%29.36 "HgN/A
1:50 AM28 °FSnow flurries. Overcast.9 mph80%29.36 "HgN/A
1:20 AM28 °FSnow flurries. Overcast.7 mph80%29.36 "HgN/A
12:50 AM28 °FLight snow. Overcast.6 mph86%29.33 "HgN/A
12:20 AM28 °FOvercast.10 mph80%29.33 "HgN/A
11:20 PM
Dec 21
28 °FOvercast.9 mph80%29.33 "HgN/A
10:50 PM28 °FPassing clouds.7 mph86%29.33 "HgN/A
10:20 PM28 °FLight snow. Overcast.9 mph86%29.33 "HgN/A
9:50 PM28 °FLight snow. Mostly cloudy.10 mph86%29.33 "HgN/A
9:20 PM28 °FSnow flurries. Passing clouds.9 mph86%29.33 "HgN/A
8:50 PM28 °FLight snow. Passing clouds.10 mph86%29.33 "HgN/A
8:20 PM28 °FLight snow. Mostly cloudy.12 mph86%29.30 "HgN/A
7:50 PM28 °FLight snow. Overcast.10 mph86%29.30 "HgN/A
7:20 PM28 °FLight snow. Overcast.10 mph86%29.30 "HgN/A
6:50 PM28 °FLight snow. Overcast.12 mph86%29.30 "HgN/A
6:20 PM27 °FLight snow. Overcast.10 mph93%29.30 "HgN/A
5:50 PM27 °FLight snow. Mostly cloudy.12 mph93%29.30 "Hg4 mi
5:20 PM28 °FLight snow. Mostly cloudy.12 mph86%29.27 "Hg4 mi
4:50 PM28 °FLight snow. Overcast.12 mph86%29.27 "HgN/A
4:20 PM27 °FLight snow. Overcast.10 mph93%29.27 "HgN/A
3:50 PM27 °FLight snow. Mostly cloudy.12 mph86%29.27 "Hg6 mi
3:20 PM27 °FLight snow. Overcast.14 mph86%29.27 "Hg4 mi
2:50 PM27 °FPartly sunny.12 mph80%29.27 "HgN/A
2:20 PM27 °FScattered clouds.13 mph74%29.27 "HgN/A
1:50 PM28 °FPartly sunny.9 mph74%29.27 "HgN/A
1:20 PM28 °FPartly sunny.12 mph74%29.24 "HgN/A
12:50 PM27 °FPartly sunny.12 mph80%29.24 "HgN/A
12:20 PM27 °FPartly sunny.13 mph74%29.24 "HgN/A
11:50 AM27 °FPassing clouds.15 mph80%29.24 "HgN/A
11:20 AM27 °FPassing clouds.12 mph80%29.24 "HgN/A
10:50 AM28 °FPartly sunny.13 mph74%29.24 "HgN/A
10:20 AM28 °FPartly sunny.12 mph80%29.24 "HgN/A
9:50 AM28 °FPartly sunny.13 mph80%29.24 "HgN/A
9:20 AM28 °FPassing clouds.13 mph80%29.24 "HgN/A
8:50 AM28 °FPassing clouds.9 mph80%29.21 "HgN/A
8:20 AM30 °FPassing clouds.9 mph80%29.21 "HgN/A
7:50 AM30 °FOvercast.12 mph80%29.21 "HgN/A
7:20 AM30 °FOvercast.12 mph80%29.18 "HgN/A
6:50 AM30 °FOvercast.10 mph86%29.18 "HgN/A
6:20 AM30 °FOvercast.12 mph86%29.18 "HgN/A
5:50 AM30 °FOvercast.8 mph86%29.18 "HgN/A
5:20 AM30 °FOvercast.10 mph86%29.18 "HgN/A
Weather by CustomWeather, © 2014

See weather overviewHow to use our weather pages